User: anonymous   Login
Location: Camp Creek
(33.9000°N, 111.8167°W)
Time: 04:52:06
(UTC-07:00)
Language:

Cosmos 2322 Rocket - Orbit

View from above orbital plane
View from above orbital plane
View from above satellite
View from above satellite

Ground track
Ground track

The orbit data is extracted from the following two-line orbital elements,

1 23705U 95058B   15142.52019364 -.00000292  00000-0 -12580-3 0  9991
2 23705 071.0209 176.5078 0012322 000.2351 359.8775 14.15063006 10149
Epoch (UTC): 22 May 2015 12:29:04
Eccentricity: 0.0012322
inclination: 71.0209°
perigee height: 833 km
apogee height: 851 km
right ascension of ascending node: 176.5078°
argument of perigee: 0.2351°
revolutions per day: 14.15063006
mean anomaly at epoch: 359.8775°
orbit number at epoch: 1014

The dashed part of the orbit path shows where the satellite is in the earth's shadow,  

DLR